Regional Weather Roundup
Issued by NWS

Home | Current Version | Previous Version | Graphics & Text | Print | Product List | Glossary On
Versions: 1 2 3 4 5 6 7 8 9 10 11 12 13 14 15 16 17 18 19 20 21 22 23 24 25 26 27 28 29 30 31 32 33 34 35 36 37 38 39 40 41 42 43 44 45 46 47 48 49 50
000
ASUS43 KMKX 020714
RWRWI

WISCONSIN REGIONAL WEATHER ROUNDUP
NATIONAL WEATHER SERVICE MILWAUKEE/SULLIVAN WI
200 AM CDT TUE JUN 02 2015

NOTE: "FAIR" INDICATES FEW OR NO CLOUDS BELOW 12,000 FEET WITH NO
SIGNIFICANT WEATHER AND/OR OBSTRUCTIONS TO VISIBILITY.

WIZ001-002-006>008-014>016-023>028-020800-
NORTHWEST WISCONSIN

CITY           SKY/WX    TMP DP  RH WIND       PRES   REMARKS
SUPERIOR ARPT  CLOUDY    42  34  72 CALM      30.12F
ASHLAND        NOT AVBL
HAYWARD        PTCLDY    54  38  54 SE10      30.14S
SIREN          PTCLDY    51  44  77 SE5       30.10F
CUMBERLAND     PTCLDY    50  41  71 SE6       30.13F
RICE LAKE      PTCLDY    51  42  70 SE6       30.16S
CHETEK         PTCLDY    50  40  69 E6        30.15F
LADYSMITH      CLEAR     49  40  71 SE3       30.18F
EAU CLAIRE     CLEAR     50  37  61 SE5       30.15S
MENOMONIE      CLEAR     51  41  68 E5        30.14S
NEW RICHMOND   PTCLDY    54  41  61 SE7       30.12S
OSCEOLA        PTCLDY    55  43  65 SE7       30.13F
$$

WIZ003>005-009-010-017-018-020800-
NORTH CENTRAL WISCONSIN

CITY           SKY/WX    TMP DP  RH WIND       PRES   REMARKS
MANITOWISH WTR CLEAR     46  39  74 S5        30.18F
ARBOR VITAE    CLEAR     49  40  70 S5        30.19F
WOODRUFF       CLEAR     49  40  70 S5        30.19F
RHINELANDER    CLEAR     39  35  86 CALM      30.20S
EAGLE RIVER    CLEAR     39  33  81 CALM      30.18F
LAND O LAKES   CLEAR     37  36  97 CALM      30.20S
PHILLIPS       PTCLDY    46  39  77 E3        30.17F
TOMAHAWK       CLEAR     38  35  89 CALM      30.20F
MEDFORD        CLEAR     46  39  77 SE3       30.18F
MERRILL        CLEAR     38  37  99 E5        30.21S WCI  34
$$

WIZ029-030-035-036-043>047-020800-
CENTRAL WISCONSIN

CITY           SKY/WX    TMP DP  RH WIND       PRES   REMARKS
WAUSAU         CLEAR     46  39  76 CALM      30.18F
MOSINEE        CLEAR     43  39  87 E5        30.20S
MARSHFIELD     CLEAR     49  36  61 E3        30.19R
STEVENS POINT  CLEAR     40  38  93 CALM      30.20S
WAUPACA        CLEAR     44  42  94 CALM      30.21R
WAUTOMA        CLEAR     41  41 100 CALM      30.20S
WISC RAPIDS    CLEAR     42  35  76 CALM      30.20S
CAMP DOUGLAS   CLEAR     38  38 100 E3        30.18R
$$

WIZ011>013-019>022-031-037>040-048>050-020800-
NORTHEAST WISCONSIN

CITY           SKY/WX    TMP DP  RH WIND       PRES   REMARKS
ANTIGO         CLEAR     40  39  93 CALM      30.20S
SHAWANO        CLEAR     43  40  88 CALM      30.21S
OCONTO         CLEAR     37  37 100 CALM      30.20S
STURGEON BAY   CLEAR     46  30  53 E7        30.22S
GREEN BAY      CLEAR     43  41  93 CALM      30.20S
MANITOWOC      CLEAR     42  40  92 CALM      30.21S
APPLETON       CLEAR     50  32  50 NE3       30.20S
CLINTONVILLE   CLEAR     43  41  93 CALM      30.21S
OSHKOSH        CLEAR     46  40  79 CALM      30.19F
$$

WIZ032>034-041-042-053>061-020800-
SOUTHWEST WISCONSIN

CITY           SKY/WX    TMP DP  RH WIND       PRES   REMARKS
LA CROSSE      CLEAR     54  38  54 SE5       30.16R
SPARTA         CLEAR     39  38  96 CALM      30.18
VIROQUA        CLEAR     49  34  55 SE7       30.17S
BOSCOBEL       CLEAR     44  41  89 CALM      30.18S
PRAIRIE DU CHI CLEAR     52  35  52 CALM      30.17R
PLATTEVILLE    CLEAR     49  39  68 E8        30.18R
$$

WIZ056-057-062-063-064-067-068-020800-
SOUTH CENTRAL WISCONSIN

CITY           SKY/WX    TMP DP  RH WIND       PRES   REMARKS
REEDSBURG      CLEAR     43  38  83 CALM      30.18S
BARABOO/DELLS  CLEAR     45  34  65 SE3       30.18S
LONE ROCK      CLEAR     48  37  65 CALM      30.20R
MINERAL POINT  CLEAR     50  36  57 E8        30.19R
MADISON        CLEAR     46  34  62 CALM      30.19S
MIDDLETON      CLEAR     43  36  75 CALM      30.19F
WATERTOWN      CLEAR     42  38  88 CALM      30.19F
MONROE         CLEAR     45  37  76 E7        30.17F
JANESVILLE     CLEAR     45  37  76 CALM      30.18F
$$

WIZ051-052-058>065-066-070>072-020800-
SOUTHEAST WISCONSIN

CITY           SKY/WX    TMP DP  RH WIND       PRES   REMARKS
MILWAUKEE      PTCLDY    44  33  65 CALM      30.19F
WAUKESHA       CLEAR     41  34  75 CALM      30.20F
MILWAUKEE/TIMM CLEAR     41  34  75 CALM      30.21S
RACINE         CLEAR     43  37  79 N5        30.20F
BURLINGTON     CLEAR     37  36  96 CALM      30.19S
KENOSHA        CLEAR     44  36  73 N5        30.19F
FOND DU LAC    CLEAR     41  39  93 S3        30.19F
SHEBOYGAN      CLEAR     39  38  96 CALM      30.20S
WEST BEND      CLEAR     39  36  87 CALM      30.20S
JUNEAU         CLEAR     44  37  74 E6        30.20F
$$

LSZ147-162-020800-
LAKE SUPERIOR

STATION/POSITION TIME  TEMP    WIND        PRES    WAVE
                       AIR SEA DIR/SP/G            HT/PER
                 (UTC) (F)     (DEG/KT/KT) (MB)    (FT/S)
W MID LAKE BUOY  0650   39 37  190/  6/  6   N/A     1
DEVILS ISLAND    0700   42     100/  2/  2   N/A
PORT WING        0600   41     110/  2/  4   N/A
SAXON HARBOR     0600   40        CALM       N/A
$$

LMZ867-665-643>646-020800-
LAKE MICHIGAN

STATION/POSITION TIME  TEMP    WIND        PRES    WAVE
                       AIR SEA DIR/SP/G            HT/PER
                 (UTC) (F)     (DEG/KT/KT) (MB)    (FT/S)
CHAMBERS ISLAND  0600   41      CALM  /  1   N/A
N MID LAKE BUOY  0650   40 37  120/  6/  6   N/A     0
NORTHPORT PIER   0600   45     120/  2/  3   N/A
SISTER BAY       0618   42        CALM       N/A
ALGOMA LAKESHORE 0609             CALM       N/A
KEWAUNEE LAKESHO 0600   43                   N/A
SHEBOYGAN LAKESH 0700   49     330/  4/  5   N/A
PORT WASHINGTON  0540   49     300/  3/  5   N/A
ATWATER BUOY     0600   47     320/  4/  4   N/A
MILWAUKEE LAKESH 0600   49     340/  4/  4   N/A
S MID LAKE BUOY  0650   43 38   50/  8/  8   N/A     1/ 4
KENOSHA   LAKESH 0700   47     300/  2/  4   N/A
$$

TC  - TEMPERATURE IN CELSIUS
VSB - VISIBILITY IN STATUTE MILES
WCI - WIND CHILL INDEX
HX  - HEAT INDEX




USA.gov is the U.S. government's official web portal to all federal, state and local government web resources and services.